SCP
0 0 0 0 0 0 0 0 0 0 0 0 0 0 0 0 0 0 0 0 0 0 0 0 0 0 0 0 0 0 0 0 0 0 0 0 0 0 0 0 0 0 0 0 0 0 0
0 0 0 0 0 0 0 0 0 0 0 0 0 0 0 0 0 0 0 0 0 0 0 0 0 0 0 0 0 0 0 0 0 0 0 0 0 0 0 0 0 0 0 0 0 0 0
0 0 0 0 0 0 0 0 0 0 0 0 0 0 0 0 0 0 0 0 0 0 0 0 0 0 0 0 0 0 0 0 0 0 0 0 0 0 0 0 0 0 0 0 0 0 0
0 0 0 0 0 0 0 0 0 0 0 0 0 0 0 0 0 0 0 0 0 0 0 0 0 0 0 0 0 0 0 0 0 0 0 0 0 0 0 0 0 0 0 0 0 0 0
0 0 0 0 0 0 0 0 0 0 0 0 0 0 0 0 0 0 0 0 0 0 0 0 0 0 0 0 0 0 0 0 0 0 0 0 0 0 0 0 0 0 0 0 0 0 0
0 0 0 0 0 0 0 0 0 0 0 0 0 0 0 0 0 0 0 0 0 0 0 0 0 0 0 0 0 0 0 0 0 0 0 0 0 0 0 0 0 0 0 0 0 0 0
0 0 0 0 0 0 0 0 0 0 0 0 0 0 0 0 0 0 0 0 0 0 0 0 0 0 0 0 0 0 0 0 0 0 0 0 0 0 0 0 0 0 0 0 0 0 0
0 0 0 0 0 0 0 0 0 0 0 0 0 0 0 0 0 0 -0 -0 0 0 0 0 0 0 0 0 0 0 0 0 0 0 0 0 0 0 0 0 0 0 0 0 0 0 0
0 0 0 0 0 0 0 0 0 0 0 0 0 0 0 0 0 0 -0 -0 0 0 0 0 0 0 0 0 0 0 0 0 0 0 0 0 0 0 0 0 0 0 0 0 0 0 0
0 0 0 0 0 0 0 0 0 0 0 0 0 0 0 0 0 0 0 0 0 0 0 0 0 0 0 0 0 0 0 0 0 0 0 0 0 0 0 0 -0 0 0 0 0 0 0
0 0 0 0 0 0 0 0 0 0 0 0 0 0 0 0 0 0 0 0 0 0 0 0 0 0 0 0 0 0 0 0 0 0 0 0 0 0 0 0 -0 0 0 0 0 0 0
0 0 0 0 0 0 0 0 0 0 0 0 0 0 0 0 0 0 0 0 0 0 0 0 0 0 0 0 0 0 0 0 0 0 0 0 0 0 0 0 -0 -0 0 0 0 0 0
0 0 0 0 0 0 0 0 0 0 0 0 0 0 0 0 0 0 0 0 0 0 0 0 0 0 0 0 0 0 0 0 0 0 0 0 0 0 0 0 0 0 0 0 0 0 -0
0 0 0 0 0 0 0 0 0 0 0 0 0 0 0 0 0 0 0 0 0 0 0 0 0 0 0 0 0 0 0 0 0 0 0 0 0 0 0 0 0 0 0 0 0 0 0
0 0 0 0 0 0 0 0 0 0 0 0 0 0 0 0 0 0 0 0 0 0 0 0 0 0 0 0 0 0 0 0 0 0 0 0 0 0 0 0 0 0 0 0 0 0 -0
0 0 0 0 0 0 0 0 0 0 0 0 0 0 0 0 0 0 0 0 0 0 0 0 0 0 0 0 0 0 0 0 0 0 0 0 0 0 0 0 0 0 0 0 0 0 0
0 0 0 0 0 0 0 0 0 0 0 0 0 0 0 0 0 0 0 0 0 0 0 0 0 0 0 0 0 0 0 0 0 0 0 0 0 0 0 0 0 0 0 0 0 0 0
0 0 0 0 0 0 0 0 0 0 0 0 0 0 0 0 0 0 0 0 0 0 0 0 0 0 0 0 0 0 0 0 0 0 0 0 0 0 0 0 0 0 0 0 0 0 0
0 0 0 0 0 0 0 0 0 0 0 0 0 0 0 0 0 0 0 0 0 0 0 0 0 0 0 0 0 0 0 0 0 0 0 0 0 0 0 0 0 0 0 0 0 0 0
0 0 0 0 0 0 0 0 0 0 0 0 0 0 0 0 0 0 0 0 0 0 0 0 0 0 0 0 0 0 0 0 0 0 0 0 0 0 0 0 0 0 0 0 0 0 0
0 0 0 0 0 0 0 0 0 0 0 0 0 0 0 0 0 0 0 0 0 0 0 0 0 0 0 0 0 0 0 0 0 0 0 0 0 0 0 0 0 0 0 0 0 0 0
0 0 0 0 0 0 0 0 0 0 0 0 0 0 0 0 0 0 0 0 0 0 0 0 0 0 0 0 0 0 0 0 0 0 0 0 0 0 0 0 0 0 0 0 0 0 0
0 0 0 0 0 0 0 0 0 0 0 0 0 0 0 0 0 0 0 0 0 0 0 0 0 0 0 0 0 0 0 0 0 0 0 0 0 0 0 0 0 0 0 0 0 0 0
0 0 0 0 0 0 0 0 0 0 0 0 0 0 0 0 0 0 0 0 0 0 0 0 0 0 0 0 0 0 0 0 0 0 0 0 0 0 0 0 0 0 0 0 0 0 0
0 0 0 0 0 0 0 0 0 0 0 0 0 0 0 0 0 0 0 0 0 0 0 0 0 0 0 0 0 0 0 0 0 0 0 0 0 0 0 0 0 0 0 0 0 0 0
0 0 0 0 0 0 0 0 0 0 0 0 0 0 0 0 0 0 0 0 0 0 0 0 0 0 0 0 0 0 0 0 0 0 0 0 0 0 0 0 0 0 0 0 0 0 0
0 0 0 0 0 0 0 0 0 0 0 0 0 0 0 0 0 0 0 0 0 0 0 0 -0 0 0 0 0 0 0 0 0 0 0 0 0 0 0 0 0 0 0 0 -0 -0 0
0 -0 0 0 0 0 0 0 0 0 0 0 0 0 0 0 0 0 0 0 0 0 0 0 0 0 0 0 0 0 0 0 0 0 0 0 0 0 0 0 0 0 0 0 -0 -0 0
0 0 0 0 0 0 0 0 0 0 0 0 0 0 0 0 0 0 0 0 0 0 0 0 0 0 0 0 0 0 0 0 0 0 0 0 0 0 0 0 0 0 0 -0 -0 -0 -0
Wind_Speed_500mb
2 4 4 5 4 5 7 8 11 14 18 22 25 29 32 36 40 45 50 47 55 60 40 28 24 23 5 9 8 18 26 41 28 30 31 21 20 14 6 9 10 15 17 30 35 41 33
6 5 5 6 6 5 7 9 12 15 18 21 26 30 34 39 42 47 50 50 58 48 35 21 26 13 2 6 12 34 41 36 27 21 18 16 14 16 22 16 14 10 11 19 33 46 38
8 9 6 9 7 8 8 11 13 16 20 24 27 32 37 41 45 50 49 54 57 35 20 25 19 20 10 8 18 49 33 27 20 19 30 30 25 22 7 9 34 22 20 21 33 47 19
12 11 10 10 11 9 10 12 13 17 20 25 29 35 40 45 49 52 46 56 45 31 16 18 21 10 8 17 27 43 29 28 30 34 24 20 20 25 25 19 12 11 7 9 6 7 18
17 15 13 12 13 10 12 12 14 17 21 25 30 35 42 48 53 55 49 56 32 21 20 7 23 7 6 24 48 32 29 50 51 11 24 21 14 10 2 4 6 7 12 17 29 16 16
19 18 16 14 14 13 14 14 15 18 22 26 30 35 42 49 55 55 57 47 29 8 14 7 19 5 16 34 54 29 27 63 28 24 13 5 2 1 1 3 9 21 31 30 34 8 24
22 20 18 17 16 15 15 15 16 18 21 25 31 36 43 50 54 48 60 28 23 4 14 11 10 4 22 44 37 33 43 50 11 7 4 4 4 10 13 13 25 26 26 37 48 35 28
25 23 21 19 17 17 16 16 16 19 22 25 31 36 42 50 51 43 53 34 21 12 9 6 13 16 30 41 18 45 51 23 11 7 7 3 9 4 10 15 22 28 32 39 33 7 20
27 27 23 20 19 18 18 16 17 19 22 25 29 35 41 49 40 48 49 46 25 10 5 8 10 12 25 30 9 42 54 31 6 9 12 7 9 15 18 22 19 32 23 29 34 33 20
29 31 27 23 21 19 19 18 18 19 22 24 28 34 39 46 22 46 40 43 17 8 8 13 11 14 38 27 6 23 43 15 8 9 12 10 5 19 23 9 17 16 10 27 38 29 7
30 32 31 27 23 21 19 19 19 19 22 24 29 34 41 41 30 42 41 33 9 4 11 18 10 14 44 17 24 14 37 16 10 15 7 11 14 19 7 21 26 21 34 42 38 32 21
32 27 34 29 25 22 20 19 20 20 21 23 27 32 39 40 29 43 41 22 5 13 8 13 10 18 19 17 16 25 20 34 11 9 5 11 16 0 6 23 23 26 21 40 4 7 3
36 30 32 32 27 24 21 19 20 20 22 22 26 31 35 35 31 42 37 9 11 14 10 21 11 14 11 13 12 15 12 14 17 16 24 16 8 10 9 23 16 41 30 8 10 5 4
41 34 31 31 28 25 23 19 19 20 21 22 25 30 33 22 35 34 24 10 19 6 10 8 13 17 12 15 6 15 16 13 10 8 10 9 16 13 11 3 18 26 14 8 8 7 11
40 37 31 30 27 28 25 20 19 19 20 21 25 29 22 19 33 26 7 13 13 11 5 14 11 11 12 11 3 16 12 12 8 14 10 10 11 9 11 6 15 19 23 20 8 9 6
39 40 33 29 29 25 25 21 19 18 18 20 25 27 7 24 27 15 10 5 5 4 3 6 5 5 7 12 17 17 12 6 16 15 15 7 12 6 10 13 10 20 23 9 7 10 8
44 41 36 31 29 22 24 22 19 16 15 17 21 11 9 25 16 7 8 9 8 4 4 6 6 5 8 6 4 8 11 10 8 14 15 5 5 15 8 13 30 26 19 7 5 6 6
48 42 40 34 28 25 21 22 18 16 12 12 10 5 13 21 6 8 4 12 5 3 5 3 6 7 8 2 6 5 8 9 19 21 14 5 4 8 12 10 31 34 24 10 5 12 6
36 50 44 37 31 29 23 23 21 15 11 7 10 6 7 11 5 3 6 2 3 4 5 7 6 8 3 4 4 5 8 13 19 16 20 9 6 10 17 4 7 20 44 32 4 7 22
27 49 50 46 37 32 30 25 23 18 13 4 3 4 5 10 11 11 6 2 5 3 3 5 3 3 6 6 3 9 7 8 28 18 17 5 3 3 4 12 7 32 41 39 20 7 9
34 36 52 51 47 38 35 29 28 23 17 9 3 2 3 3 6 8 3 7 1 4 5 7 2 4 6 3 7 6 8 10 6 24 18 6 3 4 8 6 2 26 29 38 34 20 10
45 40 35 63 55 48 41 37 32 28 24 17 7 9 8 7 7 6 2 6 4 4 11 5 8 6 9 8 12 7 5 5 5 17 13 8 6 5 8 4 4 16 36 30 26 20 9
61 52 31 43 59 55 48 44 38 34 32 13 17 12 4 3 6 5 7 10 8 4 6 7 8 7 3 14 21 22 24 26 14 9 9 13 7 8 10 18 8 17 32 20 15 24 6
62 58 38 41 51 59 54 50 43 38 37 22 14 12 8 4 3 7 11 8 10 8 4 5 7 10 6 10 16 3 1 7 10 12 12 10 6 6 5 14 18 9 8 4 15 27 27
50 60 53 45 50 55 57 55 49 42 42 35 20 12 7 2 5 4 10 6 4 6 6 7 7 7 16 5 6 9 8 9 7 9 3 12 3 6 7 4 4 5 12 9 9 17 22
70 47 58 51 48 39 59 60 54 48 47 40 31 22 8 5 8 7 7 8 5 2 6 6 6 9 1 4 7 6 1 7 11 14 4 5 7 7 7 10 4 8 4 7 5 17 26
61 64 66 65 61 44 63 64 55 57 51 45 33 30 16 5 6 14 6 6 8 5 4 5 4 2 2 4 6 4 3 2 5 1 8 8 7 8 3 5 12 9 20 5 11 6 16
50 69 53 69 65 54 46 53 64 60 57 50 40 30 27 9 11 13 11 6 7 6 6 3 4 2 6 6 5 6 5 7 1 5 5 5 7 3 5 8 6 4 0 13 13 18 14
57 58 64 56 65 61 61 60 67 66 63 62 47 39 32 13 6 10 13 12 8 8 4 2 4 4 5 7 1 6 3 3 4 5 3 3 9 7 9 9 3 1 18 32 27 27 19
Wind_Direction_500mb
266 312 322 332 336 342 353 357 356 353 354 348 353 352 350 346 348 347 342 338 337 332 344 345 349 355 63 114 64 6 331 340 327 312 308 303 285 263 240 245 285 249 256 264 280 282 273
273 273 294 306 312 321 330 331 347 344 347 347 349 348 346 345 346 344 342 338 336 338 351 357 349 10 129 90 9 352 334 328 330 317 315 300 264 255 275 231 206 251 254 271 284 277 272
268 276 279 291 295 306 320 321 335 338 339 345 345 347 344 344 344 344 343 339 337 346 356 348 0 351 114 72 8 347 330 329 334 311 298 294 290 249 231 273 258 289 289 275 266 265 265
269 268 273 280 287 298 307 311 324 328 335 341 344 344 341 343 344 344 344 339 340 349 355 348 14 35 103 8 341 346 344 348 332 317 298 288 266 258 246 265 304 272 243 299 282 194 241
264 268 270 275 281 293 294 303 314 323 333 337 340 341 342 342 342 344 346 346 348 353 347 46 18 78 70 350 341 348 351 344 329 308 314 286 267 232 245 264 291 216 273 268 298 241 239
260 264 272 272 279 285 288 299 309 322 327 332 337 341 340 342 342 344 350 351 350 14 13 25 18 30 22 338 337 357 342 342 328 317 318 196 260 283 244 150 278 291 289 284 282 244 293
259 264 268 269 273 279 285 295 306 316 320 329 335 342 342 341 344 346 353 4 1 342 34 52 13 307 320 341 346 354 347 347 342 299 330 332 279 248 270 238 265 278 275 278 280 287 283
257 262 264 265 272 277 280 287 299 308 319 330 335 340 342 342 342 349 352 34 22 323 327 11 350 340 348 337 321 348 343 352 347 301 326 324 256 291 287 296 300 292 280 278 281 250 303
256 256 261 261 266 273 277 284 293 305 317 327 333 336 342 343 341 351 3 17 8 5 351 355 10 349 346 336 340 348 349 336 287 308 320 263 276 313 329 322 333 317 276 276 284 317 254
253 256 258 259 260 267 275 280 287 300 311 323 330 336 342 347 352 351 2 356 3 54 73 322 341 6 353 346 39 355 352 338 325 307 325 276 324 335 327 299 339 300 241 303 293 306 275
256 260 251 251 254 260 269 275 283 295 307 320 329 335 342 350 348 354 348 346 11 56 38 320 338 359 352 55 322 337 352 339 301 304 64 277 326 339 323 329 324 255 300 292 285 274 281
253 261 263 246 249 255 261 270 278 290 303 317 326 332 341 344 348 348 345 350 56 41 306 348 6 353 358 8 2 318 347 5 297 319 238 265 293 226 259 302 305 322 305 309 328 233 213
245 256 268 252 245 251 257 264 276 286 297 314 323 330 335 340 343 345 342 355 37 89 350 319 338 358 333 330 329 5 332 13 31 355 357 329 328 317 315 333 333 348 347 337 1 13 230
238 246 261 260 243 246 251 256 268 280 296 311 320 328 329 341 343 343 342 48 60 231 259 349 351 323 14 358 344 336 354 353 27 351 326 12 331 13 322 2 315 335 345 344 312 326 318
233 239 248 256 260 245 246 251 263 276 293 311 320 326 325 348 344 342 343 50 196 195 270 332 330 35 326 351 349 360 4 333 14 359 6 341 289 307 308 342 23 340 341 303 254 239 249
232 237 240 249 250 246 243 246 257 273 293 309 326 326 326 348 343 346 65 161 171 205 350 58 75 112 330 315 354 7 340 331 339 350 355 283 300 330 342 17 51 341 345 1 349 349 342
227 234 234 241 245 243 237 239 248 266 289 314 329 325 335 346 349 27 109 211 225 233 145 108 187 296 246 295 302 311 286 294 1 324 324 279 140 305 4 15 10 8 12 345 276 305 345
228 231 231 236 239 233 233 233 240 252 274 312 327 1 335 347 12 53 112 182 176 172 122 118 149 192 201 319 293 287 291 223 359 343 334 317 219 292 245 205 51 32 7 340 72 344 349
248 230 229 231 230 228 228 227 229 236 250 298 313 290 336 359 100 4 303 263 220 153 157 175 201 179 113 216 5 242 289 285 347 357 348 336 1 338 348 348 28 17 14 17 106 25 17
249 237 225 226 226 229 223 222 222 219 223 240 312 19 16 63 78 114 146 307 321 191 164 196 186 103 67 349 254 291 293 301 335 357 2 84 360 53 6 303 321 8 20 25 37 58 323
228 266 238 222 221 222 221 220 219 209 203 191 142 136 136 286 29 96 112 152 255 38 192 191 124 200 151 306 339 273 273 296 319 1 1 61 29 21 257 233 333 29 22 24 39 13 46
220 237 252 228 220 215 219 214 217 209 197 194 187 155 132 105 118 145 247 216 199 257 163 229 151 223 174 195 179 255 335 356 346 330 359 7 322 53 298 329 227 37 29 29 39 14 16
219 221 230 241 226 216 215 214 210 207 197 185 195 182 175 151 122 105 212 170 195 179 183 168 171 142 171 239 244 260 275 277 279 313 324 358 341 23 325 341 73 15 16 22 44 38 304
230 210 214 232 237 219 214 211 210 206 207 199 179 169 165 244 166 204 177 174 179 216 242 167 191 145 186 296 292 65 152 264 260 261 252 341 2 36 297 348 38 333 29 120 70 39 26
239 210 215 218 236 231 217 212 210 207 204 201 199 199 194 209 165 191 184 191 208 228 220 221 203 216 300 303 58 31 339 9 285 259 199 191 90 52 83 30 270 2 5 4 13 31 20
229 224 207 216 227 232 221 212 207 208 205 203 203 213 211 134 242 129 161 190 189 178 348 233 254 293 325 93 73 106 244 216 318 346 133 166 109 110 42 90 72 232 286 326 269 39 21
228 223 214 218 218 221 227 212 209 207 205 207 207 212 213 214 184 167 178 188 158 133 177 286 336 139 60 71 78 119 255 190 315 51 320 353 4 92 42 117 286 250 307 126 71 213 71
218 228 223 213 208 209 212 216 211 204 205 204 207 210 207 211 184 195 192 187 176 183 143 189 46 321 52 64 120 198 146 221 39 242 201 154 116 186 92 70 339 235 289 129 160 134 117
218 211 226 212 198 219 212 214 214 206 203 204 206 207 209 227 160 195 204 209 228 206 184 90 138 145 152 92 336 104 140 91 146 278 245 311 182 191 176 207 241 97 115 128 137 142 150
Wind_Speed_850mb
2 4 4 5 4 5 7 8 11 14 18 22 25 29 32 36 40 45 50 47 55 60 40 28 24 23 5 9 8 18 26 41 28 30 31 21 20 14 6 9 10 15 17 30 35 41 33
6 5 5 6 6 5 7 9 12 15 18 21 26 30 34 39 42 47 50 50 58 48 35 21 26 13 2 6 12 34 41 36 27 21 18 16 14 16 22 16 14 10 11 19 33 46 38
8 9 6 9 7 8 8 11 13 16 20 24 27 32 37 41 45 50 49 54 57 35 20 25 19 20 10 8 18 49 33 27 20 19 30 30 25 22 7 9 34 22 20 21 33 47 19
12 11 10 10 11 9 10 12 13 17 20 25 29 35 40 45 49 52 46 56 45 31 16 18 21 10 8 17 27 43 29 28 30 34 24 20 20 25 25 19 12 11 7 9 6 7 18
17 15 13 12 13 10 12 12 14 17 21 25 30 35 42 48 53 55 49 56 32 21 20 7 23 7 6 24 48 32 29 50 51 11 24 21 14 10 2 4 6 7 12 17 29 16 16
19 18 16 14 14 13 14 14 15 18 22 26 30 35 42 49 55 55 57 47 29 8 14 7 19 5 16 34 54 29 27 63 28 24 13 5 2 1 1 3 9 21 31 30 34 8 24
22 20 18 17 16 15 15 15 16 18 21 25 31 36 43 50 54 48 60 28 23 4 14 11 10 4 22 44 37 33 43 50 11 7 4 4 4 10 13 13 25 26 26 37 48 35 28
25 23 21 19 17 17 16 16 16 19 22 25 31 36 42 50 51 43 53 34 21 12 9 6 13 16 30 41 18 45 51 23 11 7 7 3 9 4 10 15 22 28 32 39 33 7 20
27 27 23 20 19 18 18 16 17 19 22 25 29 35 41 49 40 48 49 46 25 10 5 8 10 12 25 30 9 42 54 31 6 9 12 7 9 15 18 22 19 32 23 29 34 33 20
29 31 27 23 21 19 19 18 18 19 22 24 28 34 39 46 22 46 40 43 17 8 8 13 11 14 38 27 6 23 43 15 8 9 12 10 5 19 23 9 17 16 10 27 38 29 7
30 32 31 27 23 21 19 19 19 19 22 24 29 34 41 41 30 42 41 33 9 4 11 18 10 14 44 17 24 14 37 16 10 15 7 11 14 19 7 21 26 21 34 42 38 32 21
32 27 34 29 25 22 20 19 20 20 21 23 27 32 39 40 29 43 41 22 5 13 8 13 10 18 19 17 16 25 20 34 11 9 5 11 16 0 6 23 23 26 21 40 4 7 3
36 30 32 32 27 24 21 19 20 20 22 22 26 31 35 35 31 42 37 9 11 14 10 21 11 14 11 13 12 15 12 14 17 16 24 16 8 10 9 23 16 41 30 8 10 5 4
41 34 31 31 28 25 23 19 19 20 21 22 25 30 33 22 35 34 24 10 19 6 10 8 13 17 12 15 6 15 16 13 10 8 10 9 16 13 11 3 18 26 14 8 8 7 11
40 37 31 30 27 28 25 20 19 19 20 21 25 29 22 19 33 26 7 13 13 11 5 14 11 11 12 11 3 16 12 12 8 14 10 10 11 9 11 6 15 19 23 20 8 9 6
39 40 33 29 29 25 25 21 19 18 18 20 25 27 7 24 27 15 10 5 5 4 3 6 5 5 7 12 17 17 12 6 16 15 15 7 12 6 10 13 10 20 23 9 7 10 8
44 41 36 31 29 22 24 22 19 16 15 17 21 11 9 25 16 7 8 9 8 4 4 6 6 5 8 6 4 8 11 10 8 14 15 5 5 15 8 13 30 26 19 7 5 6 6
48 42 40 34 28 25 21 22 18 16 12 12 10 5 13 21 6 8 4 12 5 3 5 3 6 7 8 2 6 5 8 9 19 21 14 5 4 8 12 10 31 34 24 10 5 12 6
36 50 44 37 31 29 23 23 21 15 11 7 10 6 7 11 5 3 6 2 3 4 5 7 6 8 3 4 4 5 8 13 19 16 20 9 6 10 17 4 7 20 44 32 4 7 22
27 49 50 46 37 32 30 25 23 18 13 4 3 4 5 10 11 11 6 2 5 3 3 5 3 3 6 6 3 9 7 8 28 18 17 5 3 3 4 12 7 32 41 39 20 7 9
34 36 52 51 47 38 35 29 28 23 17 9 3 2 3 3 6 8 3 7 1 4 5 7 2 4 6 3 7 6 8 10 6 24 18 6 3 4 8 6 2 26 29 38 34 20 10
45 40 35 63 55 48 41 37 32 28 24 17 7 9 8 7 7 6 2 6 4 4 11 5 8 6 9 8 12 7 5 5 5 17 13 8 6 5 8 4 4 16 36 30 26 20 9
61 52 31 43 59 55 48 44 38 34 32 13 17 12 4 3 6 5 7 10 8 4 6 7 8 7 3 14 21 22 24 26 14 9 9 13 7 8 10 18 8 17 32 20 15 24 6
62 58 38 41 51 59 54 50 43 38 37 22 14 12 8 4 3 7 11 8 10 8 4 5 7 10 6 10 16 3 1 7 10 12 12 10 6 6 5 14 18 9 8 4 15 27 27
50 60 53 45 50 55 57 55 49 42 42 35 20 12 7 2 5 4 10 6 4 6 6 7 7 7 16 5 6 9 8 9 7 9 3 12 3 6 7 4 4 5 12 9 9 17 22
70 47 58 51 48 39 59 60 54 48 47 40 31 22 8 5 8 7 7 8 5 2 6 6 6 9 1 4 7 6 1 7 11 14 4 5 7 7 7 10 4 8 4 7 5 17 26
61 64 66 65 61 44 63 64 55 57 51 45 33 30 16 5 6 14 6 6 8 5 4 5 4 2 2 4 6 4 3 2 5 1 8 8 7 8 3 5 12 9 20 5 11 6 16
50 69 53 69 65 54 46 53 64 60 57 50 40 30 27 9 11 13 11 6 7 6 6 3 4 2 6 6 5 6 5 7 1 5 5 5 7 3 5 8 6 4 0 13 13 18 14
57 58 64 56 65 61 61 60 67 66 63 62 47 39 32 13 6 10 13 12 8 8 4 2 4 4 5 7 1 6 3 3 4 5 3 3 9 7 9 9 3 1 18 32 27 27 19
Wind_Direction_850mb
266 312 322 332 336 342 353 357 356 353 354 348 353 352 350 346 348 347 342 338 337 332 344 345 349 355 63 114 64 6 331 340 327 312 308 303 285 263 240 245 285 249 256 264 280 282 273
273 273 294 306 312 321 330 331 347 344 347 347 349 348 346 345 346 344 342 338 336 338 351 357 349 10 129 90 9 352 334 328 330 317 315 300 264 255 275 231 206 251 254 271 284 277 272
268 276 279 291 295 306 320 321 335 338 339 345 345 347 344 344 344 344 343 339 337 346 356 348 0 351 114 72 8 347 330 329 334 311 298 294 290 249 231 273 258 289 289 275 266 265 265
269 268 273 280 287 298 307 311 324 328 335 341 344 344 341 343 344 344 344 339 340 349 355 348 14 35 103 8 341 346 344 348 332 317 298 288 266 258 246 265 304 272 243 299 282 194 241
264 268 270 275 281 293 294 303 314 323 333 337 340 341 342 342 342 344 346 346 348 353 347 46 18 78 70 350 341 348 351 344 329 308 314 286 267 232 245 264 291 216 273 268 298 241 239
260 264 272 272 279 285 288 299 309 322 327 332 337 341 340 342 342 344 350 351 350 14 13 25 18 30 22 338 337 357 342 342 328 317 318 196 260 283 244 150 278 291 289 284 282 244 293
259 264 268 269 273 279 285 295 306 316 320 329 335 342 342 341 344 346 353 4 1 342 34 52 13 307 320 341 346 354 347 347 342 299 330 332 279 248 270 238 265 278 275 278 280 287 283
257 262 264 265 272 277 280 287 299 308 319 330 335 340 342 342 342 349 352 34 22 323 327 11 350 340 348 337 321 348 343 352 347 301 326 324 256 291 287 296 300 292 280 278 281 250 303
256 256 261 261 266 273 277 284 293 305 317 327 333 336 342 343 341 351 3 17 8 5 351 355 10 349 346 336 340 348 349 336 287 308 320 263 276 313 329 322 333 317 276 276 284 317 254
253 256 258 259 260 267 275 280 287 300 311 323 330 336 342 347 352 351 2 356 3 54 73 322 341 6 353 346 39 355 352 338 325 307 325 276 324 335 327 299 339 300 241 303 293 306 275
256 260 251 251 254 260 269 275 283 295 307 320 329 335 342 350 348 354 348 346 11 56 38 320 338 359 352 55 322 337 352 339 301 304 64 277 326 339 323 329 324 255 300 292 285 274 281
253 261 263 246 249 255 261 270 278 290 303 317 326 332 341 344 348 348 345 350 56 41 306 348 6 353 358 8 2 318 347 5 297 319 238 265 293 226 259 302 305 322 305 309 328 233 213
245 256 268 252 245 251 257 264 276 286 297 314 323 330 335 340 343 345 342 355 37 89 350 319 338 358 333 330 329 5 332 13 31 355 357 329 328 317 315 333 333 348 347 337 1 13 230
238 246 261 260 243 246 251 256 268 280 296 311 320 328 329 341 343 343 342 48 60 231 259 349 351 323 14 358 344 336 354 353 27 351 326 12 331 13 322 2 315 335 345 344 312 326 318
233 239 248 256 260 245 246 251 263 276 293 311 320 326 325 348 344 342 343 50 196 195 270 332 330 35 326 351 349 360 4 333 14 359 6 341 289 307 308 342 23 340 341 303 254 239 249
232 237 240 249 250 246 243 246 257 273 293 309 326 326 326 348 343 346 65 161 171 205 350 58 75 112 330 315 354 7 340 331 339 350 355 283 300 330 342 17 51 341 345 1 349 349 342
227 234 234 241 245 243 237 239 248 266 289 314 329 325 335 346 349 27 109 211 225 233 145 108 187 296 246 295 302 311 286 294 1 324 324 279 140 305 4 15 10 8 12 345 276 305 345
228 231 231 236 239 233 233 233 240 252 274 312 327 1 335 347 12 53 112 182 176 172 122 118 149 192 201 319 293 287 291 223 359 343 334 317 219 292 245 205 51 32 7 340 72 344 349
248 230 229 231 230 228 228 227 229 236 250 298 313 290 336 359 100 4 303 263 220 153 157 175 201 179 113 216 5 242 289 285 347 357 348 336 1 338 348 348 28 17 14 17 106 25 17
249 237 225 226 226 229 223 222 222 219 223 240 312 19 16 63 78 114 146 307 321 191 164 196 186 103 67 349 254 291 293 301 335 357 2 84 360 53 6 303 321 8 20 25 37 58 323
228 266 238 222 221 222 221 220 219 209 203 191 142 136 136 286 29 96 112 152 255 38 192 191 124 200 151 306 339 273 273 296 319 1 1 61 29 21 257 233 333 29 22 24 39 13 46
220 237 252 228 220 215 219 214 217 209 197 194 187 155 132 105 118 145 247 216 199 257 163 229 151 223 174 195 179 255 335 356 346 330 359 7 322 53 298 329 227 37 29 29 39 14 16
219 221 230 241 226 216 215 214 210 207 197 185 195 182 175 151 122 105 212 170 195 179 183 168 171 142 171 239 244 260 275 277 279 313 324 358 341 23 325 341 73 15 16 22 44 38 304
230 210 214 232 237 219 214 211 210 206 207 199 179 169 165 244 166 204 177 174 179 216 242 167 191 145 186 296 292 65 152 264 260 261 252 341 2 36 297 348 38 333 29 120 70 39 26
239 210 215 218 236 231 217 212 210 207 204 201 199 199 194 209 165 191 184 191 208 228 220 221 203 216 300 303 58 31 339 9 285 259 199 191 90 52 83 30 270 2 5 4 13 31 20
229 224 207 216 227 232 221 212 207 208 205 203 203 213 211 134 242 129 161 190 189 178 348 233 254 293 325 93 73 106 244 216 318 346 133 166 109 110 42 90 72 232 286 326 269 39 21
228 223 214 218 218 221 227 212 209 207 205 207 207 212 213 214 184 167 178 188 158 133 177 286 336 139 60 71 78 119 255 190 315 51 320 353 4 92 42 117 286 250 307 126 71 213 71
218 228 223 213 208 209 212 216 211 204 205 204 207 210 207 211 184 195 192 187 176 183 143 189 46 321 52 64 120 198 146 221 39 242 201 154 116 186 92 70 339 235 289 129 160 134 117
218 211 226 212 198 219 212 214 214 206 203 204 206 207 209 227 160 195 204 209 228 206 184 90 138 145 152 92 336 104 140 91 146 278 245 311 182 191 176 207 241 97 115 128 137 142 150